Probability
0 0 0 0 0 0 0 0 0 0 0 0 0 0 0 0 0 0 0 0 0 0 0 0 0 0 0 0 0 0 0 0 0 0 2 4 5 5
0 0 0 0 0 0 0 0 0 0 0 0 0 0 0 0 0 0 0 0 0 0 0 0 0 0 0 0 0 0 0 0 0 0 2 3 3 4
0 0 0 0 0 0 0 0 0 0 0 0 0 0 0 0 0 0 0 0 0 0 0 0 0 0 0 0 0 0 0 0 0 0 1 1 1 2
0 0 0 0 0 0 0 0 0 0 0 0 0 0 0 0 0 0 0 0 0 0 0 0 0 0 0 0 0 0 0 0 0 0 0 0 0 1
0 0 0 0 0 0 0 0 0 0 0 0 0 0 0 0 0 0 0 0 0 0 0 0 0 0 0 0 0 0 0 0 0 0 0 0 0 1
0 0 0 0 0 0 0 0 0 0 0 0 0 0 0 0 0 0 0 0 0 0 0 0 0 0 0 0 0 0 0 0 0 0 0 0 0 0
0 0 0 0 0 0 0 0 0 0 0 0 0 0 0 0 0 0 0 0 0 0 0 0 0 0 0 0 0 0 0 0 0 0 0 0 0 0
0 0 0 0 0 0 0 0 0 0 0 0 0 0 0 0 0 0 0 0 0 0 0 0 0 0 0 0 0 0 0 0 0 0 0 0 0 0
0 0 0 0 0 0 0 0 0 0 0 0 0 0 0 0 0 0 0 0 0 0 0 0 0 0 0 0 0 0 0 0 0 0 0 0 0 0
0 0 0 0 0 0 0 0 0 0 0 0 0 0 0 0 0 0 0 0 0 0 0 0 0 0 0 0 0 0 0 0 0 0 0 0 0 0
0 0 0 0 0 0 0 0 0 0 0 0 0 0 0 0 0 0 0 0 0 0 0 0 0 0 0 0 0 0 0 0 0 0 0 0 0 0
0 0 0 0 0 0 0 0 0 0 0 0 0 0 0 0 0 0 0 0 0 0 0 0 0 0 0 0 0 0 0 0 0 0 0 0 0 0
0 0 0 0 0 0 0 0 0 0 0 0 0 0 0 0 0 0 0 0 0 0 0 0 0 0 0 0 0 0 0 0 0 0 0 0 0 0
0 0 0 0 0 0 0 0 0 0 0 0 0 0 0 0 0 0 0 0 0 0 0 0 0 0 0 0 0 0 0 0 0 0 0 0 0 0
0 0 0 0 0 0 0 0 0 0 0 0 0 0 0 0 0 0 0 0 0 0 0 0 0 0 0 0 0 0 0 0 0 0 0 0 0 0
0 0 0 0 0 0 0 0 0 0 0 0 0 0 0 0 0 0 0 0 0 0 0 0 0 0 0 0 0 0 0 0 0 0 0 0 0 0
0 0 0 0 0 0 0 0 0 0 0 0 0 0 0 0 0 0 0 0 0 0 0 0 0 0 0 0 0 0 0 0 0 0 0 0 0 0
0 0 0 0 0 0 0 0 0 0 0 0 0 0 0 0 0 0 0 0 0 0 0 0 0 0 0 0 0 0 0 0 0 0 0 0 0 0
0 0 0 0 0 0 0 0 0 0 0 0 0 0 0 0 0 0 0 0 0 0 0 0 0 0 0 0 0 0 0 0 0 0 0 0 0 0
0 0 0 0 0 0 0 0 0 0 0 0 0 0 0 0 0 0 0 0 0 0 0 0 0 0 0 0 0 0 0 0 0 0 0 0 0 0
0 0 0 0 0 0 0 0 0 0 0 0 0 0 0 0 0 0 0 0 0 0 0 0 0 0 0 0 0 0 0 0 0 0 0 0 0 0
0 0 0 0 0 0 0 0 0 0 0 0 0 0 0 0 0 0 0 0 0 0 0 0 0 0 0 0 0 0 0 0 0 0 0 0 0 0
0 0 0 0 0 0 0 0 0 0 0 0 0 0 0 0 0 0 0 0 0 0 0 0 0 0 0 0 0 0 0 0 0 0 0 0 0 0
Wind_Speed
10 10 10 9 9 9 9 10 12 14 14 14 13 13 10 10 8 10 12 9 11 14 15 16 17 17 16 16 15 13 10 7 7 9 14 18 19 18
10 12 12 11 10 10 10 10 11 12 14 13 14 14 14 12 12 13 13 11 16 18 18 16 16 17 17 16 15 13 10 7 6 6 8 12 16 18
13 14 15 15 12 11 11 11 12 12 14 14 14 14 16 15 13 12 12 12 12 14 14 14 14 15 16 16 15 14 12 10 8 7 8 9 11 14
15 16 16 14 15 13 12 14 13 13 14 17 14 14 15 14 14 14 13 11 12 9 8 11 14 14 12 11 10 10 9 9 9 9 10 10 11 12
15 16 16 16 16 14 15 14 13 13 13 14 14 12 11 12 14 14 14 11 12 10 8 12 14 13 11 8 8 7 7 8 9 11 12 12 13 13
15 15 16 16 16 15 13 14 13 13 13 12 12 11 11 12 12 11 10 9 9 8 8 7 8 11 12 12 11 12 11 11 12 13 13 14 14 14
16 15 15 17 19 16 13 13 14 11 11 11 12 12 12 11 11 9 9 9 9 7 6 6 6 7 8 12 14 15 14 14 15 16 17 17 17 17
14 14 14 15 15 16 18 19 18 16 14 13 12 13 15 14 11 9 8 8 7 4 5 5 4 5 5 5 4 7 12 16 19 20 21 21 21 20
13 13 12 12 15 13 14 17 17 20 21 17 16 16 16 14 12 11 9 9 6 2 2 3 4 5 5 5 6 11 16 20 24 26 26 26 25 24
13 13 13 14 13 13 13 13 15 16 16 13 12 14 14 13 12 12 10 6 2 2 3 3 3 4 4 4 7 13 19 22 25 28 30 31 29 26
15 15 15 15 14 14 14 14 15 14 11 10 12 13 13 12 9 5 4 3 2 2 2 3 2 3 4 4 7 15 19 17 17 21 26 28 28 25
13 13 15 15 15 14 13 13 14 12 9 9 7 6 5 4 4 2 0 0 0 1 1 2 2 2 3 2 5 8 10 10 9 6 17 23 26 18
11 10 10 13 14 15 14 12 11 10 8 6 3 3 4 4 6 6 5 3 2 1 1 2 2 2 2 3 4 7 9 7 6 8 13 21 22 16
11 10 11 15 15 14 10 8 9 7 2 1 2 3 4 5 6 7 8 8 7 6 5 3 2 3 2 2 4 5 8 10 9 10 11 17 18 17
11 16 18 16 13 8 7 7 3 3 4 4 4 4 5 5 5 6 7 8 10 10 9 10 7 6 6 4 4 5 5 9 10 12 13 13 12 12
11 12 13 12 8 7 7 7 6 5 4 4 4 5 5 5 6 6 6 6 7 9 12 13 12 11 8 9 8 10 10 7 9 13 15 16 14 14
12 8 7 7 7 6 6 6 5 4 5 5 6 6 6 6 6 6 7 7 7 8 8 9 11 12 14 11 9 11 11 11 10 11 15 17 15 15
10 8 8 8 8 7 6 6 6 5 5 6 6 6 6 6 7 7 7 7 8 8 8 6 6 6 8 13 16 10 11 11 10 12 13 17 16 14
8 8 8 8 7 7 6 6 6 6 5 6 6 6 6 6 6 7 7 8 9 10 10 9 8 9 12 11 13 15 11 10 11 13 14 15 15 12
9 9 8 8 7 7 6 6 6 6 6 6 6 6 5 5 6 7 8 10 10 11 12 12 11 11 12 11 9 12 15 12 12 15 15 15 16 19
9 9 8 8 7 6 6 6 6 6 7 6 6 6 5 5 6 8 9 11 11 11 12 11 10 11 11 11 13 14 14 17 15 12 13 13 14 13
9 9 8 9 8 7 6 6 6 6 7 6 6 5 5 6 7 9 9 9 9 10 11 11 11 11 11 13 14 15 15 15 18 21 18 11 8 9
9 8 8 8 8 7 6 6 7 6 6 5 5 5 5 6 6 7 8 9 9 10 11 11 10 10 11 12 13 13 17 16 14 15 17 25 31 29
Wind_Direction
287 286 283 290 290 288 291 291 291 291 289 293 291 292 293 283 279 275 275 267 260 268 273 276 277 278 277 276 274 270 273 275 266 245 223 215 213 215
287 290 290 287 289 287 284 283 281 281 283 286 286 284 287 285 279 280 280 272 255 255 258 265 270 273 274 269 263 254 251 254 254 246 231 218 215 214
293 293 295 295 292 291 287 282 279 278 279 281 280 280 281 282 285 281 275 270 267 246 242 256 266 270 270 265 252 243 238 237 238 237 234 226 219 215
298 299 299 299 295 291 287 282 280 278 277 280 279 279 280 283 281 279 276 277 282 277 244 251 261 265 265 260 242 233 231 232 235 235 235 231 227 226
303 302 301 300 295 291 289 287 285 282 278 279 283 284 283 280 282 280 280 285 286 280 244 238 246 253 254 253 245 240 237 235 235 237 238 238 236 233
303 301 298 296 295 295 293 288 284 281 280 282 283 283 280 281 281 283 287 289 288 286 276 263 247 242 243 242 240 242 243 242 240 238 237 237 236 236
302 302 301 300 294 288 284 285 286 285 285 283 284 285 283 284 284 289 288 290 284 266 259 249 241 240 226 227 233 238 242 243 242 239 236 233 231 230
305 305 300 293 293 291 281 277 279 283 286 285 283 281 283 284 285 283 282 279 272 235 242 250 236 248 253 255 255 258 257 256 251 245 237 231 227 225
303 297 294 295 297 292 294 293 284 277 274 276 278 279 283 285 284 279 269 265 260 177 193 250 227 240 247 258 277 278 272 264 256 246 238 231 224 219
304 299 296 294 291 288 288 283 279 277 274 274 277 282 284 282 272 265 267 262 215 167 204 256 240 250 261 273 281 288 285 274 259 245 234 225 218 211
311 308 305 299 292 284 286 285 284 285 283 283 286 288 290 289 276 249 223 207 205 174 190 256 274 283 278 282 305 310 304 291 269 245 227 215 204 197
308 304 297 292 292 289 290 288 289 297 311 312 306 308 315 345 10 30 53 186 183 160 173 262 282 296 291 302 317 326 322 315 313 252 201 188 177 177
307 306 304 301 296 291 287 284 285 296 302 300 316 346 6 32 44 50 47 38 33 38 358 294 318 323 317 308 318 341 350 358 20 63 110 135 147 158
311 312 316 316 311 304 296 293 294 291 272 73 50 35 42 50 55 60 61 58 53 44 24 18 12 359 344 352 345 340 5 20 40 63 84 97 101 100
317 321 324 324 325 326 346 357 14 69 79 72 62 54 51 56 62 66 66 63 56 48 44 47 52 48 42 35 16 4 18 28 42 62 68 70 78 86
330 329 330 334 350 7 24 45 53 56 65 70 66 62 57 51 49 54 59 59 61 56 50 50 51 54 58 54 57 51 46 46 50 65 70 66 63 66
331 342 355 0 17 31 42 47 45 48 57 59 63 64 58 52 54 64 68 66 65 65 62 58 58 61 54 47 55 56 56 55 54 66 77 74 63 64
346 2 5 9 19 29 38 42 41 43 47 52 61 63 56 51 58 64 64 62 65 68 68 64 64 68 67 51 36 58 62 61 59 64 75 82 75 66
3 5 8 12 17 24 33 39 45 50 53 56 62 63 56 52 54 58 60 63 66 66 64 59 58 66 73 67 41 36 62 71 73 70 69 76 78 74
5 3 4 10 16 22 29 38 49 58 61 59 60 61 60 58 58 59 61 70 73 72 69 64 61 64 71 77 74 57 50 67 77 80 80 81 84 87
1 359 359 4 13 20 27 41 55 62 67 63 60 63 59 55 60 69 75 71 74 77 77 76 81 90 94 91 83 77 68 61 66 80 93 95 97 94
358 356 356 0 5 17 27 39 54 60 64 63 59 56 52 51 60 70 76 78 80 84 88 91 93 88 85 87 90 93 92 88 75 66 59 72 97 105
355 353 356 358 2 9 26 42 54 58 59 60 55 49 49 55 63 68 71 75 82 91 95 97 95 90 88 88 90 91 90 86 81 75 68 70 80 88